TimeCST,TemperatureF,Dew PointF,Humidity,Sea Level PressureIn,VisibilityMPH,Wind Direction,Wind SpeedMPH,Gust SpeedMPH,PrecipitationIn,Events,Conditions,WindDirDegrees,DateUTC
12:15 AM,33.3,22.6,65,30.13,10.0,South,13.8,-,N/A,,Clear,190,2013-01-07 06:15:00
12:35 AM,32.4,22.5,67,30.12,10.0,South,12.7,-,N/A,,Clear,190,2013-01-07 06:35:00
12:55 AM,32.0,22.3,67,30.12,10.0,South,11.5,-,N/A,,Clear,190,2013-01-07 06:55:00
1:15 AM,32.0,22.3,67,30.11,10.0,South,12.7,-,N/A,,Clear,190,2013-01-07 07:15:00
1:35 AM,32.9,22.6,66,30.11,10.0,South,13.8,-,N/A,,Clear,190,2013-01-07 07:35:00
1:55 AM,33.1,22.6,66,30.10,10.0,South,16.1,-,N/A,,Clear,190,2013-01-07 07:55:00
2:15 AM,33.8,22.5,63,30.11,10.0,South,13.8,-,N/A,,Clear,180,2013-01-07 08:15:00
2:35 AM,33.8,22.5,63,30.10,10.0,South,13.8,-,N/A,,Clear,180,2013-01-07 08:35:00
2:55 AM,34.2,22.5,62,30.09,10.0,South,13.8,-,N/A,,Clear,180,2013-01-07 08:55:00
3:15 AM,34.2,22.3,62,30.09,10.0,South,13.8,19.6,N/A,,Clear,180,2013-01-07 09:15:00
3:35 AM,34.5,22.1,61,30.08,10.0,South,15.0,-,N/A,,Clear,180,2013-01-07 09:35:00
3:55 AM,34.7,21.7,59,30.07,10.0,South,16.1,-,N/A,,Clear,190,2013-01-07 09:55:00
4:15 AM,34.7,21.6,59,30.07,10.0,South,17.3,-,N/A,,Clear,190,2013-01-07 10:15:00
4:35 AM,35.1,21.4,57,30.06,10.0,South,19.6,25.3,N/A,,Clear,190,2013-01-07 10:35:00
4:55 AM,35.2,21.2,57,30.06,10.0,South,18.4,26.5,N/A,,Clear,190,2013-01-07 10:55:00
5:15 AM,35.6,21.2,56,30.05,10.0,South,19.6,25.3,N/A,,Clear,190,2013-01-07 11:15:00
5:35 AM,34.7,21.6,59,30.05,10.0,South,17.3,21.9,N/A,,Clear,190,2013-01-07 11:35:00
5:55 AM,33.8,21.2,60,30.04,10.0,South,17.3,23.0,N/A,,Clear,180,2013-01-07 11:55:00
6:15 AM,35.6,21.2,56,30.02,10.0,South,16.1,25.3,N/A,,Clear,190,2013-01-07 12:15:00
6:35 AM,35.2,21.6,58,30.02,10.0,South,20.7,27.6,N/A,,Clear,190,2013-01-07 12:35:00
6:55 AM,35.6,21.6,57,30.01,10.0,South,20.7,29.9,N/A,,Clear,190,2013-01-07 12:55:00
7:15 AM,35.4,21.2,56,30.00,10.0,South,18.4,28.8,N/A,,Clear,190,2013-01-07 13:15:00
7:35 AM,34.9,21.2,57,30.01,10.0,South,13.8,-,N/A,,Clear,190,2013-01-07 13:35:00
7:55 AM,34.9,21.4,58,30.03,10.0,South,12.7,23.0,N/A,,Clear,190,2013-01-07 13:55:00
8:15 AM,35.6,21.6,57,30.02,10.0,South,17.3,27.6,N/A,,Clear,180,2013-01-07 14:15:00
8:35 AM,36.5,22.1,56,30.03,10.0,SSW,16.1,24.2,N/A,,Clear,200,2013-01-07 14:35:00
8:55 AM,37.4,22.1,54,30.03,10.0,SSW,12.7,18.4,N/A,,Clear,200,2013-01-07 14:55:00
9:15 AM,37.6,22.3,54,30.04,10.0,SW,11.5,17.3,N/A,,Clear,220,2013-01-07 15:15:00
9:35 AM,37.6,22.5,54,30.05,10.0,SSW,10.4,16.1,N/A,,Clear,210,2013-01-07 15:35:00
9:55 AM,38.3,22.6,53,30.04,10.0,SSW,16.1,-,N/A,,Clear,210,2013-01-07 15:55:00
10:15 AM,38.5,23.2,54,30.04,10.0,SSW,18.4,24.2,N/A,,Clear,210,2013-01-07 16:15:00
10:35 AM,38.8,23.9,55,30.05,10.0,SW,19.6,24.2,N/A,,Clear,220,2013-01-07 16:35:00
10:55 AM,39.0,24.1,55,30.04,10.0,SSW,13.8,-,N/A,,Clear,210,2013-01-07 16:55:00
11:15 AM,39.2,24.4,56,30.05,10.0,SW,10.4,-,N/A,,Clear,220,2013-01-07 17:15:00
11:35 AM,39.9,24.8,55,30.03,10.0,SW,16.1,-,N/A,,Clear,220,2013-01-07 17:35:00
11:55 AM,40.3,25.0,54,30.02,10.0,SW,13.8,20.7,N/A,,Clear,220,2013-01-07 17:55:00
12:15 PM,40.1,25.3,56,30.01,10.0,SSW,12.7,-,N/A,,Clear,210,2013-01-07 18:15:00
12:35 PM,40.3,25.7,56,30.00,10.0,SSW,10.4,-,N/A,,Clear,210,2013-01-07 18:35:00
12:55 PM,41.0,26.6,57,30.00,10.0,SW,12.7,-,N/A,,Clear,220,2013-01-07 18:55:00
1:15 PM,41.9,25.9,53,29.99,10.0,SW,15.0,18.4,N/A,,Clear,220,2013-01-07 19:15:00
1:35 PM,41.4,26.2,55,29.99,10.0,SW,10.4,-,N/A,,Clear,220,2013-01-07 19:35:00
1:55 PM,41.9,26.1,53,29.98,10.0,SW,15.0,-,N/A,,Clear,230,2013-01-07 19:55:00
2:15 PM,41.5,26.4,55,29.99,10.0,SW,11.5,-,N/A,,Clear,230,2013-01-07 20:15:00
2:35 PM,41.7,26.6,55,29.99,10.0,SW,9.2,-,N/A,,Clear,230,2013-01-07 20:35:00
2:55 PM,41.5,27.1,57,30.00,10.0,WSW,9.2,-,N/A,,Clear,240,2013-01-07 20:55:00
3:15 PM,41.2,27.1,57,29.99,10.0,SW,9.2,-,N/A,,Clear,230,2013-01-07 21:15:00
3:35 PM,41.9,27.3,56,29.99,10.0,SW,5.8,-,N/A,,Clear,220,2013-01-07 21:35:00
3:55 PM,41.4,27.5,58,29.99,10.0,SSW,6.9,-,N/A,,Clear,210,2013-01-07 21:55:00
4:15 PM,41.9,27.5,57,29.99,10.0,SW,5.8,-,N/A,,Clear,230,2013-01-07 22:15:00
4:35 PM,41.4,27.3,57,29.98,10.0,SW,6.9,-,N/A,,Clear,230,2013-01-07 22:35:00
4:55 PM,40.1,27.5,61,29.97,10.0,SSW,4.6,-,N/A,,Clear,200,2013-01-07 22:55:00
5:15 PM,38.3,27.5,65,29.97,10.0,South,6.9,-,N/A,,Clear,190,2013-01-07 23:15:00
5:35 PM,37.6,27.5,67,29.97,10.0,SSW,3.5,-,N/A,,Clear,200,2013-01-07 23:35:00
5:55 PM,36.5,27.0,68,29.97,10.0,Calm,Calm,-,N/A,,Clear,0,2013-01-07 23:55:00
6:15 PM,36.0,27.5,71,29.96,10.0,Calm,Calm,-,N/A,,Clear,0,2013-01-08 00:15:00
6:35 PM,35.8,26.8,70,29.97,10.0,Calm,Calm,-,N/A,,Clear,0,2013-01-08 00:35:00
6:55 PM,35.6,27.5,72,29.98,10.0,Calm,Calm,-,N/A,,Clear,0,2013-01-08 00:55:00
7:15 PM,33.6,27.1,77,29.98,10.0,Calm,Calm,-,N/A,,Clear,0,2013-01-08 01:15:00
7:35 PM,32.7,27.0,79,29.98,10.0,Calm,Calm,-,N/A,,Clear,0,2013-01-08 01:35:00
7:55 PM,32.0,27.0,82,29.98,10.0,NNE,3.5,-,N/A,,Clear,30,2013-01-08 01:55:00
8:15 PM,32.4,27.1,81,29.97,10.0,Calm,Calm,-,N/A,,Clear,0,2013-01-08 02:15:00
8:35 PM,30.0,25.3,83,29.96,10.0,Calm,Calm,-,N/A,,Clear,0,2013-01-08 02:35:00
8:55 PM,30.0,25.5,83,29.96,10.0,East,3.5,-,N/A,,Clear,100,2013-01-08 02:55:00
9:15 PM,28.8,25.0,86,29.96,10.0,East,3.5,-,N/A,,Clear,80,2013-01-08 03:15:00
9:35 PM,28.6,24.6,85,29.96,10.0,NNE,4.6,-,N/A,,Clear,30,2013-01-08 03:35:00
9:55 PM,29.3,25.9,87,29.95,10.0,Calm,Calm,-,N/A,,Clear,0,2013-01-08 03:55:00
10:15 PM,27.1,23.9,88,29.95,10.0,Calm,Calm,-,N/A,,Clear,0,2013-01-08 04:15:00
10:35 PM,28.0,25.0,88,29.94,10.0,Calm,Calm,-,N/A,,Clear,0,2013-01-08 04:35:00
10:55 PM,27.1,24.1,88,29.94,10.0,Calm,Calm,-,N/A,,Clear,0,2013-01-08 04:55:00
11:15 PM,26.8,23.9,89,29.94,10.0,Calm,Calm,-,N/A,,Clear,0,2013-01-08 05:15:00
11:35 PM,27.0,23.7,88,29.93,10.0,Calm,Calm,-,N/A,,Clear,0,2013-01-08 05:35:00
11:55 PM,26.6,23.4,88,29.93,10.0,Calm,Calm,-,N/A,,Clear,0,2013-01-08 05:55:00